TimeEDT,TemperatureF,Dew PointF,Humidity,Sea Level PressureIn,VisibilityMPH,Wind Direction,Wind SpeedMPH,Gust SpeedMPH,PrecipitationIn,Events,Conditions,WindDirDegrees,DateUTC
12:53 AM,72.0,55.9,57,30.07,10.0,ESE,9.2,-,N/A,,Mostly Cloudy,120,2013-03-11 04:53:00
1:53 AM,71.1,55.9,59,30.06,10.0,ESE,5.8,-,N/A,,Mostly Cloudy,110,2013-03-11 05:53:00
2:53 AM,71.1,57.9,63,30.04,10.0,ESE,6.9,-,N/A,,Scattered Clouds,110,2013-03-11 06:53:00
3:53 AM,71.1,57.0,61,30.01,10.0,East,8.1,17.3,N/A,,Mostly Cloudy,100,2013-03-11 07:53:00
4:53 AM,71.1,55.0,57,30.00,10.0,ESE,11.5,19.6,N/A,,Clear,110,2013-03-11 08:53:00
5:53 AM,70.0,55.0,59,29.99,10.0,East,6.9,-,N/A,,Clear,100,2013-03-11 09:53:00
6:53 AM,70.0,55.9,61,29.99,10.0,ESE,8.1,-,N/A,,Clear,110,2013-03-11 10:53:00
8:53 AM,73.9,59.0,59,30.03,10.0,ESE,8.1,-,N/A,,Mostly Cloudy,120,2013-03-11 12:53:00
9:53 AM,75.0,57.9,55,30.04,10.0,ESE,8.1,-,N/A,,Clear,120,2013-03-11 13:53:00
10:53 AM,77.0,59.0,54,30.04,10.0,ESE,9.2,-,N/A,,Partly Cloudy,110,2013-03-11 14:53:00
11:53 AM,78.1,60.1,54,30.03,10.0,ESE,9.2,16.1,N/A,,Clear,120,2013-03-11 15:53:00
12:53 PM,79.0,62.1,56,30.03,10.0,ESE,6.9,-,N/A,,Mostly Cloudy,120,2013-03-11 16:53:00
1:53 PM,80.1,62.1,54,30.01,10.0,ESE,6.9,20.7,N/A,,Scattered Clouds,120,2013-03-11 17:53:00
2:53 PM,75.9,62.1,62,30.01,10.0,SE,6.9,-,N/A,,Overcast,130,2013-03-11 18:53:00
3:53 PM,80.1,61.0,52,29.99,10.0,Variable,5.8,-,N/A,,Clear,0,2013-03-11 19:53:00
4:53 PM,78.1,60.1,54,29.98,10.0,SE,5.8,-,N/A,,Clear,130,2013-03-11 20:53:00
5:53 PM,77.0,61.0,58,29.95,10.0,ESE,6.9,-,N/A,,Clear,120,2013-03-11 21:53:00
6:53 PM,75.0,60.1,60,29.97,10.0,SE,5.8,-,N/A,,Clear,130,2013-03-11 22:53:00
7:53 PM,73.0,61.0,66,29.96,10.0,ESE,8.1,-,N/A,,Clear,120,2013-03-11 23:53:00
8:53 PM,73.0,62.1,68,29.96,10.0,SE,9.2,-,N/A,,Clear,130,2013-03-12 00:53:00
9:53 PM,73.0,62.1,68,29.99,10.0,SE,9.2,-,N/A,,Clear,130,2013-03-12 01:53:00
10:53 PM,73.0,62.1,68,30.00,10.0,SE,6.9,-,N/A,,Clear,130,2013-03-12 02:53:00
11:53 PM,73.0,62.1,68,30.00,10.0,SE,9.2,-,N/A,,Clear,140,2013-03-12 03:53:00